Regional Weather Roundup
Issued by NWS

Home | Current Version | Previous Version | Text Only | Print | Product List | Glossary On
Versions: 1 2 3 4 5 6 7 8 9 10 11 12 13 14 15 16 17 18 19 20 21 22 23 24 25 26 27 28 29 30 31 32 33 34 35 36 37 38 39 40 41 42 43 44 45 46 47 48 49 50
000
ASHW40 PHFO 020030
RWRHI

WEATHER ROUNDUP FOR HAWAII
NATIONAL WEATHER SERVICE HONOLULU HI
200 PM HST FRI AUG 01 2014

THIS IS AN AUTOMATED REPORT THAT HAS NOT BEEN QUALITY CONTROLLED.

NOTE..."FAIR" INDICATES FEW OR NO CLOUDS BELOW 12,000 FEET WITH NO
SIGNIFICANT WEATHER AND/OR OBSTRUCTIONS TO VISIBILITY.

* - THESE SITES REPORT LIMITED FIELDS

HIZ001>004-020100-
KAUAI-NIIHAU-

CITY           SKY/WX    TMP DP  RH WIND       PRES   REMARKS
LIHUE APT      MOSUNNY   84  70  61 NE14      30.00F
PORT ALLEN*      N/A     88 N/A N/A E18G28      N/A
POIPU*           N/A     86 N/A N/A NE9G17      N/A
PRINCEVILLE*   NOT AVBL
KOKOLE POINT*  NOT AVBL
MOLOAA DAIRY*  NOT AVBL
WAIMEA HTS*    NOT AVBL
PUU OPAE*      NOT AVBL
PUU LUA*       NOT AVBL
MAKAHA RIDGE*  NOT AVBL
$$

HIZ005>011-020100-
OAHU-

CITY           SKY/WX    TMP DP  RH WIND       PRES   REMARKS
HONOLULU       MOSUNNY   88  66  48 E18G26    29.96F HX  90
KALAELOA       PTSUNNY   91  67  44 E8        29.96F HX  94
KANEOHE MCB    MOSUNNY   84  68  58 E12G18    29.99F
WHEELER FIELD  FAIR      83  68  59 E13G18    29.98F
BELLOWS*         N/A    N/A N/A N/A NE17        N/A
KAHUKU*          N/A    N/A N/A N/A NE10G20     N/A
WHEELER*       NOT AVBL
WAIANAE HARBOR NOT AVBL
DILLINGHAM*      N/A     86  72  62 NE5G17      N/A  HX  92
KAHUKU TRN*      N/A     82  72  69 E12G21      N/A
KAWAILOA*      NOT AVBL
KII*             N/A     82  73  74 CALM        N/A
MAKUA RANGE*     N/A     84  70  61 E13G21      N/A
OAHU FOREST NW NOT AVBL
SCHOFIELD BRK*   N/A     81  66  61 MISG        N/A
SCHOFIELD S*   NOT AVBL
WAIANAE VLY*   NOT AVBL
KUAOKALA*      NOT AVBL
HONOULIUULI*   NOT AVBL
MOKUOLOE IS*     N/A    N/A N/A N/A MISG        N/A
PALEHUA*       NOT AVBL
WAIAWA PHB*    NOT AVBL
$$

HIZ012>013-020100-
MOLOKAI-

CITY           SKY/WX    TMP DP  RH WIND       PRES   REMARKS
MOLOKAI AIRPT  SUNNY     84  73  69 NE17G26   29.97F HX  90
KALAUPAPA      NOT AVBL
MAKAPULAPAI*   NOT AVBL
MOLOKAI 1*     NOT AVBL
PUU ALII*        N/A     73  64  72 E2G9        N/A
$$

HIZ016-020100-
KAHOOLAWE-

CITY           SKY/WX    TMP DP  RH WIND       PRES   REMARKS
KAHOOLAWE*     NOT AVBL
HAKIOAWA*        N/A     79  70  74 MISG      30.07F
HONOKANAIA*      N/A     88  71  56 NE16G26   29.95F HX  93
KANELOA*         N/A     81  70  69 E20G35    30.05F
KEALIALALO*      N/A    N/A N/A N/A E13G28    30.26F
LUA MAKIKA*    NOT AVBL
$$

HIZ014>015-020100-
LANAI-

CITY           SKY/WX    TMP DP  RH WIND       PRES   REMARKS
LANAI CITY     PTSUNNY   82  68  62 NE20      30.01F
LANAI 1*       NOT AVBL
$$

HIZ017>028-020100-
MAUI-

CITY           SKY/WX    TMP DP  RH WIND       PRES   REMARKS
KAHULUI        MOSUNNY   87  70  56 NE18G30   29.95F HX  92
KAPALUA-W MAUI MOSUNNY   84  72  65 NE20G29   29.97
HANA AIRPORT   CLOUDY    81  70  69 E5        30.01F
HANA*            N/A     81 N/A N/A E7          N/A
HALEAKALA SUMM   N/A     52  52 100 SE24        N/A
MAALAEA BAY*   NOT AVBL
HALEAKALA*     NOT AVBL
KAUPO GAP*     NOT AVBL
KULA 1*          N/A     67  61  80 NW3G10      N/A
$$

HIZ023>026-020100-
BIG ISLAND OF HAWAII COAST AND LOWER SLOPES-

CITY           SKY/WX    TMP DP  RH WIND       PRES   REMARKS
KAILUA KONA    MOSUNNY   88  68  51 S10       29.90F HX  91
HILO           RAIN      77  76  96 E8        29.96F FOG
HONOKAA*       NOT AVBL
KAWAIHAE MWT*    N/A     88 N/A N/A W8          N/A
KAWAIHAE*        N/A     84 N/A N/A SW7         N/A
SOUTH POINT*     N/A     73 N/A N/A E21G33      N/A
UPOLU AIRPORT*   N/A    N/A N/A N/A NE18G26     N/A
KAMUELA*       LGT RAIN  75  68  78 N20       30.04F
HAKALAU*         N/A     64  63  95 E7          N/A
KALOKO-HONOKO*   N/A     88  70  55 S7          N/A  HX  92
PALI 2*          N/A     72  70  94 E12G18      N/A
KEALAKOMO*       N/A     79  75  89 E10G30      N/A
KAUPULEHU*     NOT AVBL
KAPAPALA*        N/A     73  70  91 E7G18       N/A
LOWER KAHUKU*  NOT AVBL
PUHE CS*       NOT AVBL
PUHO CS*         N/A     86  68  54 SW5G10      N/A
PTA KEAMUKU*     N/A     77  66  69 NE18G29     N/A
WAIKOLOA*      NOT AVBL
$$

HIZ027>028-020100-
BIG ISLAND OF HAWAII INTERIOR AND SUMMMITS-

CITY           SKY/WX    TMP DP  RH WIND       PRES   REMARKS
BRADSHAW FIELD CLOUDY    69  58  69 W12G17    30.31F
MK VISITOR CEN NOT AVBL
MAUNA KEA*       N/A     43  41  93 SE23        N/A
MAUNA LOA*       N/A     54  46  76 MISG        N/A
MAUNA LOA 1*   NOT AVBL
PTA KIPUKA*      N/A     64  63  94 NW7G14      N/A
PTA RANGE 17*    N/A     72  59  64 W12G18      N/A
PTA WEST*        N/A     75  61  60 NW10G21     N/A
NENE CABIN*    NOT AVBL
AHUMOA*        NOT AVBL
PTA PORTABLE*  NOT AVBL
PUU MALI*      NOT AVBL
$$

HIC003-020100-
NORTHWEST ISLANDS-

CITY           SKY/WX    TMP DP  RH WIND       PRES   REMARKS
MIDWAY ISLAND  SUNNY     86  72  62 NE9       30.04F HX  92
MIDWAY NOS*    NOT AVBL
FRENCH FRIGATE NOT AVBL
$$

PHZ110>124-180-020100-
BUOY REPORTS

STATION/POSITION TIME  TEMP    WIND        PRES    WAVE   SWELL
                       AIR SEA DIR/SP/G            HT/PER HT/DIR
                 (UTC) (F)     (DEG/KT/KT) (MB)    (FT/S) (FT/D)
BUOY 51001       NOT AVBL
BUOY 51101       NOT AVBL
BUOY 51100       2300   78 78  100/ 14/ 16 1017.3F
BUOY 51003       0000   81 82   50/ 10/ 14 1014.2F   5/ 9   5
BUOY 51004       NOT AVBL
BARBERS PT BUOY  NOT AVBL
WAIMEA BAY BUOY  0000      80                N/A     3/ 6
KAILUA BAY BUOY  0000      81                N/A     5/ 9   2/130
LANAI BUOY       0000      83                N/A     3/14   2/200
BARBERS PT 2     0000      81                N/A     4/14   2/200
PAUWELA MAUI     0000      79                N/A     5/ 9
HILO             NOT AVBL
KANEOHE BAY BUOY 0000      79                N/A     4/ 5
HANALEI KAUAI    NOT AVBL
KAHULUI HARBOR   0000   77 81   10/ 14/ 18 1014.6F
HONOLULU HARBOR  0000   85     100/  5/ 10 1014.7F
KILO NALU        NOT AVBL
HILO HARBOR      0000   75     360/  5/ 12 1014.2F
MOKUOLOE         0000      83              1015.6F
NAWILIWILI       0000      83                N/A
WHOTS BUOY       NOT AVBL
BUOY 51028       NOT AVBL
$$

......................KEY........................................
  SKY/WX - SKY CONDITIONS/PRESENT WEATHER
  TMP    - TEMPERATURE IN FAHRENHEIT
  DWPT   - DEWPOINT IN FAHRENHEIT
  RH     - RELATIVE HUMIDITY IN PERCENT
  WIND   - DIRECTION AND SPEED /MPH FOR ISLANDS...KTS FOR BUOYS/
  PRES   - MEAN SEA LEVEL PRESSURE IN INCHES OF HG
  VSB    - VISIBILITY IN MILES
  HX     - HEAT INDEX
  WCI    - WIND CHILL INDEX
  VRB    - VARIABLE WIND DIRECTION
  N/A    - NOT AVAILABLE


USA.gov is the U.S. government's official web portal to all federal, state and local government web resources and services.